User: anonymous   Login
Location: Unspecified
(0.0000°N, 0.0000°E)
Time: 03:40:43
(UTC+00:00)
Language:

MUOS 5 - Orbit

View from above orbital plane
View from above orbital plane
View from above satellite
View from above satellite

Ground track
Ground track

The orbit data is extracted from the following two-line orbital elements,

1 41622U 16041A   17132.53544977 0.00000000  00000-0  00000-0 0    08
2 41622   9.3788 318.6751 0208955 190.6891 168.8725  1.00270000    03
Epoch (UTC): 12 May 2017 12:51:02
Eccentricity: 0.0208955
inclination: 9.3788°
perigee height: 34905 km
apogee height: 36668 km
right ascension of ascending node: 318.6751°
argument of perigee: 190.6891°
revolutions per day: 1.00270000
mean anomaly at epoch: 168.8725°
orbit number at epoch: 0

The dashed part of the orbit path shows where the satellite is in the earth's shadow,  

DLR